Location: Gleizolles
(44.4833°N, 6.7667°E)
Time: 17:01:23
(UTC+00:00)

Tiros 1 - Pass Details

Date: 28 June 2024
Orbit: 624 x 656 km, 48.4° (Epoch: 13 July)

Event Time Altitude Azimuth Distance (km) Brightness Sun altitude
Rises 04:29:02 0° 283° (WNW) 2,919 10.1 5.0°
Reaches altitude 10° 04:32:19 10° 259° (WSW) 2,014 9.1 5.5°
Maximum altitude 04:34:45 14° 226° (SW) 1,749 8.8 5.9°
Drops below altitude 10° 04:37:12 10° 194° (SSW) 2,018 9.3 6.3°
Sets 04:40:31 0° 170° (S) 2,930 10.4 6.8°
